Date,TemperatureHighF,TemperatureAvgF,TemperatureLowF,DewpointHighF,DewpointAvgF,DewpointLowF,HumidityHigh,HumidityAvg,HumidityLow,PressureMaxIn,PressureMinIn,WindSpeedMaxMPH,WindSpeedAvgMPH,GustSpeedMaxMPH,PrecipitationSumIn
2013-1-1,35.2,31.2,27.7,34.7,30.5,26.9,98,97,97,30.44,30.30,0,0,0,0.00
2013-1-2,37.0,31.0,28.0,36.8,30.4,27.5,99,97,95,30.30,30.14,0,0,0,0.00
2013-1-3,38.5,31.5,26.2,33.9,29.5,25.5,98,92,80,30.15,30.03,0,0,0,0.00
2013-1-4,46.8,41.2,34.0,46.5,40.7,32.9,99,98,96,30.26,30.10,0,0,0,0.00
2013-1-5,41.5,39.0,37.4,41.3,38.5,36.9,99,98,97,30.15,30.05,0,0,0,0.00
2013-1-6,43.5,39.9,38.1,42.8,39.3,37.6,99,98,96,30.13,29.94,0,0,0,0.00
2013-1-7,44.6,41.2,38.8,44.3,40.8,38.3,99,99,98,30.11,29.78,0,0,0,0.00
2013-1-8,43.0,41.0,39.9,42.7,40.7,39.6,99,99,99,30.11,29.82,0,0,0,0.00
2013-1-9,47.1,36.6,33.1,45.8,36.0,32.5,99,98,97,29.90,29.63,114,0,114,0.00
2013-1-10,34.9,33.0,30.0,34.3,32.4,29.5,98,98,97,30.05,29.89,0,0,0,0.00
2013-1-11,32.2,28.8,25.3,31.2,28.1,24.3,98,97,96,30.27,30.05,0,0,0,0.00
2013-1-12,31.3,26.2,23.4,30.3,25.2,22.1,97,96,95,30.38,30.25,0,0,0,0.00
2013-1-13,32.4,26.7,21.9,31.1,25.6,20.7,96,96,94,30.43,30.37,0,0,0,0.00
2013-1-14,33.3,31.5,29.3,32.5,30.7,28.3,97,97,96,30.51,30.41,0,0,0,0.00
2013-1-15,37.6,32.5,28.9,36.5,31.8,28.2,98,97,96,30.64,30.51,0,0,0,0.00
2013-1-16,35.6,29.1,25.0,35.1,28.4,24.2,98,97,97,30.62,30.46,0,0,0,0.00
2013-1-17,36.9,29.4,25.3,36.3,28.7,24.6,98,97,97,30.47,30.23,0,0,0,0.00
2013-1-18,33.6,29.3,25.2,33.1,28.6,24.4,98,97,97,30.29,30.20,0,0,0,0.00
2013-1-19,32.4,29.4,26.2,31.6,28.7,25.5,97,97,96,30.33,30.28,0,0,0,0.00
2013-1-20,34.0,28.2,23.2,32.9,27.3,21.9,97,96,95,30.34,30.21,0,0,0,0.00
2013-1-21,32.2,27.4,23.0,31.4,26.5,22.0,97,96,96,30.22,30.07,0,0,0,0.00
2013-1-22,35.2,29.4,23.7,34.4,28.5,22.5,98,96,95,30.11,29.84,0,0,0,0.00
2013-1-23,34.2,33.5,32.7,33.6,33.0,32.2,98,98,98,29.92,29.83,0,0,0,0.00
2013-1-25,41.0,37.0,34.9,40.2,36.3,34.3,98,98,97,29.91,29.88,0,0,0,0.00
2013-1-26,39.0,36.5,34.0,38.8,36.1,33.4,99,99,98,29.98,29.83,0,0,0,0.00
2013-1-27,39.0,36.5,34.9,38.8,36.1,34.3,99,98,97,30.00,29.94,0,0,0,0.00
2013-1-28,36.3,34.4,32.9,36.0,33.9,32.4,99,98,98,30.04,29.94,0,0,0,0.00
2013-1-29,36.1,35.3,34.9,35.9,35.1,34.6,99,99,99,30.10,30.03,0,0,0,0.00